Leaderboard
# Bib Athlete Time Attempts
1 132 Mike McMillan 48:23 1
2 11 Nathan Peters 52:15 2
3 122 Jeff Long 53:07 1
4 131 Brooke Spence 54:39 1
5 3 Erik bird 56:02 1
6 24 Andreas Klawitter 56:06 2
7 47 jenny quilty 56:39 1
8 129 Tom Froese 57:13 2
9 39 Mike de Wit 57:22 8
10 35 Alan Mijinke 1:01:38 3
11 55 Connor Hofler 1:02:45 3
12 41 Brian Bell 1:03:12 2
13 121 Ben Braun-Kauffman 1:03:13 4
14 95 James Palframan 1:03:39 2
15 112 Colin Wharton 1:03:51 1
16 18 Debbie Lynn 1:05:09 3
17 68 Anette Ng 1:05:50 2
18 7 Shawn Mullaly 1:06:20 2
19 57 John Bowman 1:06:45 3
20 10 Heather Esau 1:07:30 6
21 25 Jesse Williams 1:07:41 2
22 1 Carbs Zamora 1:08:17 4
23 9 Mike VanderKwaak 1:08:40 4
24 23 Harjinder Dhaliwal 1:09:09 4
25 15 Mike Thomas 1:10:18 1
26 5 Kara Bennett 1:10:43 2
27 26 Matt Civis 1:10:54 1
28 37 Sue Safadi 1:11:15 1
29 99 Rachelle Skoronski 1:11:27 3
30 74 Trevor Beauchamp 1:11:35 3
31 30 Lillian Dyck 1:11:53 2
32 123 Jason Gregor 1:11:55 2
33 101 peter wyse 1:12:19 1
34 110 Jeff Boyes 1:12:32 1
35 80 Erin Shankie 1:12:49 4
36 120 Julie Enos 1:12:59 3
37 116 Jarnail Singh Virk 1:13:10 2
38 36 Tasha Mijinke 1:13:31 2
39 16 Nancy Hildebrand 1:13:40 2
40 49 Casey Rempel 1:13:47 3
41 50 Jae E 1:15:06 5
42 42 Helen Lainchbury 1:15:20 3
43 76 Sheila Klassen 1:15:39 3
44 115 Kal Aujla 1:15:57 3
45 77 Mandy Emery 1:16:03 3
46 8 Anna Razzell 1:16:41 2
47 45 Mark Wessner 1:17:01 1
48 43 Darcy Lainchbury 1:17:07 1
49 90 Chelsea Lang 1:18:23 3
50 2 Trevor Savage 1:18:49 1
51 65 Jennie Wyse 1:19:38 1
52 106 Sue Perell 1:20:11 5
53 19 Rod True 1:20:19 3
54 109 Christine Limpright 1:20:23 5
55 4 Jennifer Mullaly 1:20:56 2
56 54 Annie Johansen 1:20:59 2
57 29 Jamie Imai 1:23:27 2
58 92 Donna Mccrae 1:23:45 3
59 96 Seth Cairns 1:24:07 1
60 6 Jessica Friesen 1:24:16 1
61 62 Naomi Burnet 1:25:06 1
62 17 Brittany Gibbons 1:25:29 2
63 13 maxine mikolay 1:25:32 1
64 12 Kim Harvey 1:25:41 1
65 60 Charity Rhoda 1:27:34 1
66 89 Val Cottier 1:28:21 1
67 40 Natalie Dewit 1:29:57 1
68 52 Megan Elias 1:31:53 2
69 108 Teri Lynn 1:32:20 1
70 107 S Garries 1:32:49 3
71 27 Snowflake Sweetness 1:33:29 1
72 73 Shannon Kesslar 1:34:23 1
73 87 Sharon David 1:35:20 1
74 94 Vanessa Palframan 1:35:22 1
75 28 Jenn L 1:35:29 2
76 44 Jenna Van Essen 1:36:24 2
77 86 Michael David 1:36:42 1
78 48 Rich H 1:37:07 1
T78 Trisha McDowall 1:37:07 1
T79 70 Caresse Selk 1:37:07 1
81 93 Lisa Nelson 1:37:12 1
82 117 Margaret M 1:37:33 1
83 59 Kim Hunt 1:38:06 3
84 63 melanie ellery 1:38:13 2
85 72 Gordon Forbes 1:44:06 1
T85 71 Vicki Gardiner 1:44:06 1
87 88 Jess Vink 1:48:47 1
88 102 Becky Wyse 1:49:00 1
89 53 Suzanne Pearce 1:49:48 2
90 lyds m 1:52:58 1
91 79 Leah Gamache 1:53:24 1
92 105 Grace Burns 1:53:48 1
93 78 Nicole Peterson 1:53:50 2
94 104 Jennifer Evancio 1:53:55 1
95 34 Rhonda Fransoo 1:54:37 1
96 82 Jen Closs 1:54:53 1
97 124 Trey Zamora 1:56:08 1
98 125 Amr Osso 1:56:09 1
99 21 Tara Phaneuf 1:56:15 2
100 64 Greta Dejong 1:57:03 1
101 97 Christina Ritchey 1:58:09 1
102 119 Ruth Morrison 2:00:42 1
103 103 Gillian Wark 2:00:58 1
104 22 Darlene Marven 2:09:21 1
105 81 Selena Zamora 2:17:22 1
106 111 Taysia Nikaido-Landry 2:17:27 1
107 31 Tonya Roy 2:29:56 1
T107 32 Shawna Van Nuys 2:29:56 1
109 100 Denise Craig 3:00:23 1
Top 10 Women
# Bib Athlete Time
1 131 Brooke Spence 54:39
2 47 jenny quilty 56:39
3 18 Debbie Lynn 1:05:09
4 68 Anette Ng 1:05:50
5 10 Heather Esau 1:07:30
6 5 Kara Bennett 1:10:43
7 37 Sue Safadi 1:11:15
8 99 Rachelle Skoronski 1:11:27
9 30 Lillian Dyck 1:11:53
10 80 Erin Shankie 1:12:49
Top 10 Men
# Bib Athlete Time
1 132 Mike McMillan 48:23
2 11 Nathan Peters 52:15
3 122 Jeff Long 53:07
4 3 Erik bird 56:02
5 24 Andreas Klawitter 56:06
6 129 Tom Froese 57:13
7 39 Mike de Wit 57:22
8 35 Alan Mijinke 1:01:38
9 55 Connor Hofler 1:02:45
10 41 Brian Bell 1:03:12